Probability
0 0 0 0 0 0 0 0 0 0 0 0 0 0 0 0 0 0 0 0 0 0 0 0 0 0 0 0 0 0 0 0 0 0 0 0 0 1 2 3 3 4 5 5
0 0 0 0 0 0 0 0 0 0 0 0 0 0 0 0 0 0 0 0 0 0 0 0 0 0 0 0 0 0 0 0 0 0 0 0 0 1 2 3 3 3 4 4
0 0 0 0 0 0 0 0 0 0 0 0 0 0 0 0 0 0 0 0 0 0 0 0 0 0 0 0 0 0 0 0 0 0 0 0 0 1 2 3 3 3 3 3
0 0 0 0 0 0 0 0 0 0 0 0 0 0 0 0 0 0 0 0 0 0 0 0 0 0 0 0 0 0 0 0 0 0 0 0 0 0 1 3 3 3 3 2
0 0 0 0 0 0 0 0 0 0 0 0 0 0 0 0 0 0 0 0 0 0 0 0 0 0 0 0 0 0 0 0 0 0 0 0 0 0 1 2 3 3 3 3
0 0 0 0 0 0 0 0 0 0 0 0 0 0 0 0 0 0 0 0 0 0 0 0 0 0 0 0 0 0 0 0 0 0 0 0 0 0 1 2 3 3 3 3
0 0 0 0 0 0 0 0 0 0 0 0 0 0 0 0 0 0 0 0 0 0 0 0 0 0 0 0 0 0 0 0 0 0 0 0 0 0 0 1 2 3 3 3
0 0 0 0 0 0 0 0 0 0 0 0 0 0 0 0 0 0 0 0 0 0 0 0 0 0 0 0 0 0 0 0 0 0 0 0 0 0 0 1 2 3 3 3
0 0 0 0 0 0 0 0 0 0 0 0 0 0 0 0 0 0 0 0 0 0 0 0 0 0 0 0 0 0 0 0 0 0 0 0 0 0 0 1 2 3 3 3
0 0 0 0 0 0 0 0 0 0 0 0 0 0 0 0 0 0 0 0 0 0 0 0 0 0 0 0 0 0 0 0 0 0 0 0 0 0 0 1 3 3 3 3
0 0 0 0 0 0 0 0 0 0 0 0 0 0 0 0 0 0 0 0 0 0 0 0 0 0 0 0 0 0 0 0 0 0 0 0 0 0 0 1 2 3 3 3
0 0 0 0 0 0 0 0 0 0 0 0 0 0 0 0 0 0 0 0 0 0 0 0 0 0 0 0 0 0 0 0 0 0 0 0 0 0 0 1 2 2 2 2
0 0 0 0 0 0 0 0 0 0 0 0 0 0 0 0 0 0 0 0 0 0 0 0 0 0 0 0 0 0 0 0 0 0 0 0 0 0 0 0 1 1 1 1
0 0 0 0 0 0 0 0 0 0 0 0 0 0 0 0 0 0 0 0 0 0 0 0 0 0 0 0 0 0 0 0 0 0 0 0 0 0 0 0 0 0 0 0
0 0 0 0 0 0 0 0 0 0 0 0 0 0 0 0 0 0 0 0 0 0 0 0 0 0 0 0 0 0 0 0 0 0 0 0 0 0 0 0 0 0 0 0
0 0 0 0 0 0 0 0 0 0 0 0 0 0 0 0 0 0 0 0 0 0 0 0 0 0 0 0 0 0 0 0 0 0 0 0 0 0 0 0 0 0 0 0
0 0 0 0 0 0 0 0 0 0 0 0 0 0 0 0 0 0 0 0 0 0 0 0 0 0 0 0 0 0 0 0 0 0 0 0 0 0 0 0 0 0 0 0
0 0 0 0 0 0 0 0 0 0 0 0 0 0 0 0 0 0 0 0 0 0 0 0 0 0 0 0 0 0 0 0 0 0 0 0 0 0 0 0 0 0 0 0
0 0 0 0 0 0 0 0 0 0 0 0 0 0 0 0 0 0 0 0 0 0 0 0 0 0 0 0 0 0 0 0 0 0 0 0 0 0 0 0 0 0 0 0
0 0 0 0 0 0 0 0 0 0 0 0 0 0 0 0 0 0 0 0 0 0 0 0 0 0 0 0 0 0 0 0 0 0 0 0 0 0 0 0 0 0 0 0
0 0 0 0 0 0 0 0 0 0 0 0 0 0 0 0 0 0 0 0 0 0 0 0 0 0 0 0 0 0 0 0 0 0 0 0 0 0 0 0 0 0 0 0
0 0 0 0 0 0 0 0 0 0 0 0 0 0 0 0 0 0 0 0 0 0 0 0 0 0 0 0 0 0 0 0 0 0 0 0 0 0 0 0 0 0 0 0
0 0 0 0 0 0 0 0 0 0 0 0 0 0 0 0 0 0 0 0 0 0 0 0 0 0 0 0 0 0 0 0 0 0 0 0 0 0 0 0 0 0 0 0
0 0 0 0 0 0 0 0 0 0 0 0 0 0 0 0 0 0 0 0 0 0 0 0 0 0 0 0 0 0 0 0 0 0 0 0 0 0 0 0 0 0 0 0
0 0 0 0 0 0 0 0 0 0 0 0 0 0 0 0 0 0 0 0 0 0 0 0 0 0 0 0 0 0 0 0 0 0 0 0 0 0 0 0 0 0 0 0
0 0 0 0 0 0 0 0 0 0 0 0 0 0 0 0 0 0 0 0 0 0 0 0 0 0 0 0 0 0 0 0 0 0 0 0 0 0 0 0 0 0 0 0
Wind_Speed
2 1 2 3 4 6 6 6 8 5 1 3 6 8 7 4 4 4 4 3 2 2 2 3 3 3 3 3 2 3 2 3 2 2 2 1 1 1 1 2 2 2 2 2
1 2 3 3 3 5 6 7 7 4 1 2 5 8 8 5 5 3 2 1 1 0 2 3 4 3 2 2 2 2 2 2 2 1 1 1 1 1 1 1 2 2 1 1
2 1 2 2 3 4 5 5 5 5 5 5 5 7 6 3 2 2 0 0 0 0 1 2 3 2 2 2 2 2 2 2 1 1 1 2 2 1 1 1 1 1 1 1
1 1 2 2 2 3 4 3 5 5 4 4 2 6 5 4 3 2 2 1 1 0 1 2 2 2 2 1 1 1 2 2 1 2 2 3 2 2 2 1 1 2 1 1
1 1 1 2 2 2 2 4 5 5 5 5 4 5 6 3 3 3 3 1 1 0 1 2 2 2 2 2 1 1 1 1 1 1 2 2 1 1 1 2 2 2 2 1
1 1 1 2 2 2 3 3 4 3 2 6 7 6 6 2 3 1 0 1 1 1 1 1 2 2 2 2 1 1 1 1 1 1 1 2 2 2 2 2 2 1 1 1
2 2 1 1 1 1 1 1 2 2 3 5 1 4 6 1 2 2 1 2 2 1 2 2 2 2 1 1 1 1 1 1 1 1 1 2 2 2 3 3 3 2 1 1
3 2 2 0 0 1 2 1 1 3 4 3 2 6 4 2 2 2 2 3 3 3 2 2 1 1 1 1 1 1 2 1 1 1 1 1 1 1 1 2 2 2 2 2
3 2 2 1 1 1 1 2 1 2 4 4 5 4 1 1 2 2 2 3 3 2 2 1 1 1 1 1 2 2 2 1 1 1 1 1 1 1 1 1 1 2 2 2
2 3 1 1 0 2 1 1 0 2 3 5 6 5 3 1 1 1 2 2 2 2 2 1 1 0 0 1 1 1 1 1 1 1 2 1 1 1 1 1 2 1 2 2
1 2 2 2 4 4 2 2 2 3 3 3 5 4 0 2 1 1 1 1 1 1 1 1 1 1 0 0 1 1 0 0 1 1 1 2 2 1 1 1 2 2 1 2
0 1 4 3 1 2 2 3 4 3 5 4 4 6 0 3 3 2 1 1 2 2 1 1 1 1 1 0 0 1 0 1 1 1 1 2 2 2 2 2 2 2 2 2
1 1 2 2 1 1 2 2 2 2 1 4 5 7 1 1 1 1 1 2 2 1 1 1 2 1 1 1 1 1 0 0 1 1 1 2 2 2 2 2 2 2 2 2
0 3 5 6 3 1 3 4 3 4 4 6 9 9 7 5 5 4 2 2 1 1 1 1 1 1 1 1 1 1 1 1 0 0 1 2 2 2 2 2 2 2 2 3
1 4 5 7 6 4 6 7 7 9 8 8 9 9 10 6 4 4 3 2 2 2 1 1 1 1 1 1 1 1 1 1 1 0 1 2 2 2 2 2 2 2 2 3
1 3 2 6 5 6 9 10 9 10 10 11 12 14 10 6 3 3 3 2 2 2 2 2 2 2 1 1 1 1 1 1 1 1 2 2 2 2 2 2 2 2 3 3
3 2 2 5 2 4 10 9 11 9 8 7 12 11 5 4 3 4 3 2 2 3 3 3 2 2 1 1 1 1 1 1 1 2 2 2 2 2 2 2 2 3 3 3
4 3 2 4 2 9 8 2 6 8 8 8 7 6 4 4 4 2 1 1 2 2 2 3 2 2 2 2 1 1 1 1 1 2 2 2 2 2 2 2 3 3 2 3
3 4 3 3 5 10 5 3 4 5 7 6 8 7 4 3 3 3 1 0 1 1 2 2 2 2 2 2 1 1 1 1 1 2 2 2 1 2 2 3 3 3 2 3
2 3 4 4 5 8 5 1 1 3 6 3 4 5 3 1 2 4 0 0 1 1 2 2 1 1 1 2 1 1 1 2 2 2 2 1 1 2 3 3 3 2 2 3
3 4 7 7 7 8 3 2 3 3 7 2 2 3 3 4 6 3 1 0 0 1 1 1 1 1 2 1 0 1 1 2 3 2 2 2 2 2 2 2 2 2 2 2
7 6 6 5 7 10 3 5 6 6 2 1 2 2 2 4 3 2 2 2 1 1 1 1 1 2 2 1 0 1 2 3 2 2 2 2 2 2 2 2 2 2 2 2
8 8 5 8 9 3 6 6 4 1 2 2 2 2 2 4 5 4 3 3 2 2 2 1 1 2 2 2 1 2 3 2 2 2 2 2 3 2 2 2 2 2 2 2
5 3 3 5 7 5 4 4 4 3 3 3 2 3 2 4 5 5 4 3 2 2 2 1 1 2 3 2 2 2 3 2 1 2 3 2 2 2 2 2 2 2 2 2
5 5 4 7 6 5 4 5 4 3 3 3 3 3 3 4 5 4 4 3 3 3 2 1 2 3 3 2 2 3 2 1 2 2 3 2 2 2 2 2 2 2 2 3
5 6 7 8 5 4 5 3 2 3 3 4 3 4 3 3 4 4 3 3 2 2 2 2 2 3 3 2 3 3 2 1 2 3 2 2 2 2 2 2 2 5 5 7
Wind_Direction
121 65 246 259 251 276 303 291 287 290 311 256 253 263 268 227 218 233 235 230 224 210 144 130 121 114 111 104 110 121 121 118 112 115 117 125 126 108 97 100 90 83 89 108
128 249 286 302 313 304 300 293 289 298 2 272 268 266 265 245 222 220 221 242 261 131 105 123 119 115 116 126 133 132 133 130 131 131 139 146 132 129 123 101 97 91 96 107
201 351 334 319 318 298 280 280 295 303 315 268 279 281 245 233 159 138 187 262 334 128 155 143 138 137 138 154 168 158 145 146 125 103 102 106 89 91 115 126 133 113 114 106
258 344 324 301 303 301 277 308 305 301 302 275 230 279 254 200 180 193 214 230 236 302 124 135 140 147 157 164 146 142 150 137 121 120 133 149 156 170 174 163 168 150 139 132
258 2 337 278 291 296 289 316 291 282 271 279 242 250 270 182 195 213 208 200 217 111 131 144 150 157 137 112 99 106 125 136 139 148 169 179 168 154 127 124 134 152 156 152
246 357 353 319 306 289 308 292 267 253 250 259 227 218 267 204 199 192 153 131 81 63 76 110 114 111 112 106 100 100 114 157 174 182 191 188 177 161 141 143 154 152 153 165
237 186 142 3 315 283 312 331 316 269 227 243 210 223 246 196 93 97 54 37 53 69 88 84 97 117 123 125 129 138 151 211 221 214 214 209 199 181 169 167 169 167 168 185
278 250 152 108 330 264 245 222 199 257 269 291 265 236 238 138 100 63 50 46 35 55 63 58 77 133 145 157 160 168 192 213 222 222 231 225 211 200 179 167 168 177 184 192
302 276 101 94 346 321 252 238 269 275 288 282 256 246 243 103 66 53 36 31 26 43 53 51 37 71 152 184 195 191 192 209 228 229 229 215 209 219 208 183 185 185 179 181
321 287 210 133 265 268 303 303 211 206 259 270 269 251 245 181 322 21 24 13 12 32 26 20 28 20 264 215 197 173 175 208 238 243 236 224 219 219 211 201 208 203 189 181
311 267 251 190 201 201 179 220 224 242 238 243 277 268 16 144 139 101 21 1 7 11 3 3 352 335 322 336 138 145 164 229 245 234 239 229 223 213 207 216 214 207 208 194
227 265 261 230 91 50 200 212 186 203 250 234 254 267 26 104 103 98 33 7 14 15 15 13 354 351 344 324 126 132 176 220 243 242 239 227 221 205 204 227 231 216 211 205
166 196 285 281 327 342 262 238 219 221 260 243 243 260 206 74 37 37 347 340 357 27 26 12 2 358 358 15 40 41 347 266 261 248 243 238 230 206 208 219 224 220 213 207
292 217 210 229 248 186 234 232 207 190 220 245 238 259 281 298 310 317 324 329 339 16 16 5 346 340 5 32 31 17 353 350 330 272 239 245 241 218 212 209 218 219 212 206
186 241 246 261 274 273 252 243 219 214 224 237 258 263 275 281 291 305 309 324 335 339 348 349 331 335 7 33 19 356 339 336 328 269 254 257 259 229 203 206 216 222 218 217
205 251 285 272 252 255 263 250 237 235 239 248 265 270 271 282 296 302 298 301 302 319 328 334 339 344 354 359 331 319 312 311 310 282 270 266 259 233 214 216 217 223 221 218
198 199 248 267 260 295 263 233 218 227 223 218 240 253 290 306 296 283 281 287 297 313 324 326 323 314 324 328 325 291 283 301 299 285 280 269 254 239 232 228 225 227 226 219
178 188 226 273 302 248 243 186 196 222 244 230 241 266 280 270 284 285 267 248 286 305 312 315 319 323 332 337 333 311 316 296 283 281 277 274 260 253 248 235 234 232 226 224
198 190 223 238 256 268 264 217 182 204 262 233 239 262 281 307 329 299 303 124 245 282 297 306 315 315 321 331 338 347 334 323 307 290 279 282 275 268 257 250 248 236 226 229
205 191 215 226 242 254 254 219 147 121 275 263 222 249 261 357 291 273 276 60 306 322 320 325 338 342 326 325 353 358 321 320 301 298 295 294 277 262 259 258 256 247 236 235
183 204 218 230 242 260 252 169 115 172 253 289 225 237 225 215 229 257 304 345 286 314 323 339 336 315 299 312 347 293 296 286 289 303 307 299 285 274 266 264 259 256 247 242
186 195 207 209 230 250 172 141 188 224 282 299 276 249 242 256 276 288 288 284 285 300 309 320 314 302 308 320 314 283 282 288 303 307 303 300 294 281 278 264 258 250 237 241
203 201 199 203 221 237 172 195 214 211 265 279 275 280 266 274 280 282 281 276 272 273 283 288 274 291 303 312 290 269 282 298 312 307 297 295 295 289 282 260 257 254 237 233
228 204 224 250 255 250 232 241 252 241 240 265 275 280 267 263 273 279 282 281 278 281 274 271 271 283 291 297 296 278 290 301 296 290 290 287 284 285 280 267 257 249 240 237
221 181 223 251 268 290 265 240 249 264 273 277 278 265 254 259 271 271 276 273 271 278 276 260 254 266 281 296 295 295 297 291 282 284 284 285 280 279 271 263 252 255 242 238
204 194 205 237 232 227 257 269 267 254 262 266 277 287 277 256 265 272 269 266 262 262 265 261 261 269 278 285 290 296 293 271 263 276 281 279 277 273 269 273 284 278 269 274